{"data":{"norad_id":67627,"epoch":"2026-09-19T00:42:37.598112Z","epoch_age_seconds":195949,"freshness":"STALE","line1":"1 67627U 26020L   26262.02960183  .00010399  00000+0  38677-3 0  9990","line2":"2 67627  43.0025 127.8006 0001431 276.7198  83.3491 15.27588652 35686","mean_motion":15.27588652,"eccentricity":0.0001431,"inclination_deg":43.0025,"raan_deg":127.8006,"arg_perigee_deg":276.7198,"mean_anomaly_deg":83.3491,"bstar":0.00038677,"rev_number":3568,"period_min":94.266214802963,"perigee_km":482.04135693835,"apogee_km":484.00502098443,"semimajor_km":6861.1601889614,"source":"CELESTRAK","updated_at":"2026-09-20T09:00:43.613011Z"}}